Tracking 25534 objects as of 29-Jan-2022
HD Live streaming from Space Station
objects crossing your sky now

THOR ABLESTAR DEB

Track THOR ABLESTAR DEB now!
10-day predictions


NORAD ID: 643
Int'l Code: 1961-015GU
Perigee: 894.5 km
Apogee: 1,406.8 km
Inclination: 66.4 °
Period: 108.2 minutes
Semi major axis: 7521 km
RCS: 0.0691 m2 (small)
Launch date: June 29, 1961
Source: United States (US)
Launch site: AIR FORCE EASTERN TEST RANGE (AFETR)

Note: This is SATELLITE DEBRIS
aabbcc
Your satellite tracking list
Your tracking list is empty




NASA's NSSDC Master Catalog

Two Line Element Set (TLE):
1 00643U 61015GU  22028.61005937  .00000752  00000-0  12563-2 0  9994
2 00643  66.3719  70.3335 0340559 211.1996 146.8434 13.30869803896568
Source of the keplerian elements: AFSPC